KC5AYO Weather Reports


time (UTC)temp
C
wind
direction
speed
KPH
gust
KPH
rain 1hr
cm
rain 24hr
cm
rain mn
cm
humidity
%
barometer
mb
20260905191058 33 319 0.0 3.2 0.00 0.00 0.00 53 1010.6
20260905190555 33 302 0.0 3.2 0.00 0.00 0.00 56 1010.7
20260905190059 33 298 0.0 3.2 0.00 0.00 0.00 55 1010.8
20260905185555 33 209 0.0 3.2 0.00 0.00 0.00 52 1010.8
20260905185059 33 254 0.0 3.2 0.00 0.00 0.00 51 1010.9
20260905184555 33 114 0.0 3.2 0.00 0.00 0.00 53 1011.0
20260905184057 33 290 0.0 3.2 0.00 0.00 0.00 52 1011.1
20260905183553 33 104 0.0 1.6 0.00 0.00 0.00 55 1011.3
20260905183052 33 299 0.0 0.0 0.00 0.00 0.00 57 1011.3
20260905182552 32 105 0.0 3.2 0.00 0.00 0.00 52 1011.4
20260905182054 33 199 0.0 3.2 0.00 0.00 0.00 51 1011.4
20260905181551 32 99 0.0 4.8 0.00 0.00 0.00 57 1011.3
20260905181050 32 277 0.0 4.8 0.00 0.00 0.00 55 1011.3
20260905180550 32 178 0.0 3.2 0.00 0.00 0.00 52 1011.4
20260905180109 32 229 0.0 3.2 0.00 0.00 0.00 54 1011.4
20260905175548 32 313 0.0 3.2 0.00 0.00 0.00 53 1011.4
20260905175046 32 291 0.0 0.0 0.00 0.00 0.00 55 1011.5
20260905174547 32 262 0.0 3.2 0.00 0.00 0.00 54 1011.7
20260905174046 32 221 0.0 3.2 0.00 0.00 0.00 55 1011.6
20260905173546 32 237 0.0 3.2 0.00 0.00 0.00 56 1011.6
20260905173108 32 117 0.0 3.2 0.00 0.00 0.00 55 1011.8
20260905172544 31 240 0.0 3.2 0.00 0.00 0.00 55 1011.8
20260905172043 31 150 0.0 3.2 0.00 0.00 0.00 55 1011.8
20260905171552 31 178 0.0 3.2 0.00 0.00 0.00 59 1012.0
20260905171040 31 284 0.0 4.8 0.00 0.00 0.00 57 1012.0
20260905170540 31 105 0.0 4.8 0.00 0.00 0.00 55 1012.2
20260905170040 31 160 0.0 4.8 0.00 0.00 0.00 58 1012.4
20260905165537 31 254 0.0 3.2 0.00 0.00 0.00 57 1012.4
20260905165036 30 179 0.0 3.2 0.00 0.00 0.00 58 1012.5
20260905164536 30 295 0.0 4.8 0.00 0.00 0.00 57 1012.5
20260905164036 30 104 0.0 4.8 0.00 0.00 0.00 57 1012.6
20260905163533 30 267 0.0 3.2 0.00 0.00 0.00 59 1012.6
20260905163032 30 264 0.0 3.2 0.00 0.00 0.00 57 1012.4
20260905162530 30 360 0.0 3.2 0.00 0.00 0.00 58 1012.3
20260905162030 29 311 0.0 3.2 0.00 0.00 0.00 63 1012.5
20260905161528 29 94 0.0 3.2 0.00 0.00 0.00 66 1012.4
20260905161028 28 112 0.0 4.8 0.00 0.00 0.00 65 1012.4
20260905160526 28 82 0.0 4.8 0.00 0.00 0.00 61 1012.5
20260905160044 28 269 0.0 3.2 0.00 0.00 0.00 63 1012.6
20260905155526 27 177 0.0 3.2 0.00 0.00 0.00 65 1012.7
20260905155021 27 138 0.0 3.2 0.00 0.00 0.00 66 1012.7
20260905154521 27 280 0.0 3.2 0.00 0.00 0.00 68 1012.8
20260905154023 27 250 0.0 3.2 0.00 0.00 0.00 68 1012.8
20260905153521 27 163 0.0 3.2 0.00 0.00 0.00 67 1012.7
20260905153022 27 149 0.0 3.2 0.00 0.00 0.00 66 1012.7
20260905152520 27 166 0.0 3.2 0.00 0.00 0.00 63 1012.8
20260905152023 27 120 0.0 3.2 0.00 0.00 0.00 65 1012.7
20260905151520 27 67 0.0 4.8 0.00 0.00 0.00 62 1012.8
20260905151020 27 105 0.0 4.8 0.00 0.00 0.00 61 1012.9
20260905150517 27 158 0.0 3.2 0.00 0.00 0.00 63 1012.8
20260905150017 27 192 0.0 3.2 0.00 0.00 0.00 63 1012.9
20260905145519 27 142 0.0 3.2 0.00 0.00 0.00 65 1012.9
20260905145014 27 203 0.0 8.0 0.00 0.00 0.00 66 1012.8
20260905144523 26 178 1.6 8.0 0.00 0.00 0.00 63 1012.8
20260905144018 26 126 0.0 4.8 0.00 0.00 0.00 64 1012.9
20260905143510 26 132 1.6 4.8 0.00 0.00 0.00 64 1013.0
20260905143010 26 129 0.0 4.8 0.00 0.00 0.00 70 1013.2
20260905142508 26 260 0.0 4.8 0.00 0.00 0.00 67 1013.2
20260905142007 26 109 0.0 4.8 0.00 0.00 0.00 67 1013.2
20260905141512 25 117 0.0 3.2 0.00 0.00 0.00 72 1013.2
20260905141005 25 148 0.0 3.2 0.00 0.00 0.00 69 1013.2
20260905140507 25 173 0.0 3.2 0.00 0.00 0.00 69 1013.3
20260905140014 25 150 0.0 3.2 0.00 0.00 0.00 69 1013.3
20260905135504 25 169 0.0 3.2 0.00 0.00 0.00 71 1013.4
20260905135005 25 175 0.0 3.2 0.00 0.00 0.00 70 1013.4
20260905134504 25 181 0.0 3.2 0.00 0.00 0.00 72 1013.4
20260905134003 25 156 0.0 3.2 0.00 0.00 0.00 74 1013.3
20260905133503 25 149 0.0 4.8 0.00 0.00 0.00 72 1013.3
20260905133007 25 132 0.0 4.8 0.00 0.00 0.00 73 1013.3
20260905132501 24 115 0.0 3.2 0.00 0.00 0.00 74 1013.5
20260905132001 24 153 0.0 3.2 0.00 0.00 0.00 73 1013.5
20260905131601 24 117 0.0 3.2 0.00 0.00 0.00 72 1013.5
20260905131059 24 105 0.0 3.2 0.00 0.00 0.00 74 1013.6
20260905130559 23 88 0.0 3.2 0.00 0.00 0.00 76 1013.6
20260905130059 23 107 0.0 3.2 0.00 0.00 0.00 77 1013.7
20260905125558 23 147 0.0 4.8 0.00 0.00 0.00 77 1013.5
20260905125057 23 115 0.0 4.8 0.00 0.00 0.00 78 1013.4
20260905124559 23 105 0.0 4.8 0.00 0.00 0.00 78 1013.4
20260905124056 23 128 0.0 3.2 0.00 0.00 0.00 81 1013.5
20260905123556 23 129 0.0 3.2 0.00 0.00 0.00 80 1013.7
20260905123103 23 117 0.0 3.2 0.00 0.00 0.00 81 1013.5
20260905122555 23 105 0.0 3.2 0.00 0.00 0.00 80 1013.5
20260905122056 23 110 0.0 4.8 0.00 0.00 0.00 81 1013.5
20260905121559 23 101 1.6 4.8 0.00 0.00 0.00 80 1013.6
20260905121053 23 96 0.0 4.8 0.00 0.00 0.00 81 1013.6
20260905120550 23 109 1.6 6.4 0.00 0.00 0.00 79 1013.4
20260905120100 23 102 3.2 6.4 0.00 0.00 0.00 79 1013.4
20260905115549 23 96 1.6 9.7 0.00 0.00 0.00 79 1013.5
20260905115051 23 107 1.6 9.7 0.00 0.00 0.00 79 1013.4
20260905114600 23 77 4.8 12.9 0.00 0.00 0.00 80 1013.4
20260905114046 24 144 3.2 12.9 0.00 0.00 0.00 83 1013.4
20260905113545 24 65 3.2 12.9 0.00 0.00 0.00 86 1013.2
20260905113054 24 80 4.8 12.9 0.00 0.00 0.00 90 1013.1
20260905112543 24 86 3.2 12.9 0.00 0.00 0.00 93 1012.9
20260905112042 24 91 3.2 6.4 0.00 0.00 0.00 93 1012.6
20260905111623 24 63 0.0 0.0 0.00 0.00 0.00 94 1012.2
20260905111041 24 9 0.0 0.0 0.00 0.00 0.00 93 1011.8
20260905110540 23 9 0.0 0.0 0.00 0.00 0.00 94 1011.7
20260905110039 23 9 0.0 0.0 0.00 0.00 0.00 93 1011.5
20260905105539 23 9 0.0 0.0 0.00 0.00 0.00 93 1011.4
20260905105038 24 9 0.0 0.0 0.00 0.00 0.00 93 1011.3
20260905104538 24 9 0.0 0.0 0.00 0.00 0.00 93 1011.3
20260905104038 24 9 0.0 0.0 0.00 0.00 0.00 92 1011.3
20260905103538 24 9 0.0 0.0 0.00 0.00 0.00 92 1011.3
20260905103039 24 9 0.0 0.0 0.00 0.00 0.00 92 1011.4
20260905102540 24 9 0.0 0.0 0.00 0.00 0.00 92 1011.5
20260905102038 24 5 0.0 0.0 0.00 0.00 0.00 92 1011.4
20260905101541 24 9 0.0 0.0 0.00 0.00 0.00 93 1011.5
20260905101036 24 9 0.0 0.0 0.00 0.00 0.00 93 1011.6
20260905100536 24 338 0.0 0.0 0.00 0.00 0.00 92 1011.5
20260905100036 24 338 0.0 0.0 0.00 0.00 0.00 91 1011.4
20260905095535 24 338 0.0 0.0 0.00 0.00 0.00 91 1011.3
20260905095035 24 338 0.0 0.0 0.00 0.00 0.00 91 1011.3
20260905094535 24 338 0.0 0.0 0.00 0.00 0.00 91 1011.3
20260905094036 24 338 0.0 0.0 0.00 0.00 0.00 91 1011.4
20260905093534 24 338 0.0 0.0 0.00 0.00 0.00 91 1011.4
20260905093039 24 338 0.0 0.0 0.00 0.00 0.00 91 1011.3
20260905092534 24 338 0.0 0.0 0.00 0.00 0.00 91 1011.3
20260905092033 25 338 0.0 0.0 0.00 0.00 0.00 91 1011.3
20260905091533 25 338 0.0 0.0 0.00 0.00 0.00 91 1011.3
20260905091032 25 338 0.0 0.0 0.00 0.00 0.00 91 1011.3
20260905090532 25 338 0.0 0.0 0.00 0.00 0.00 91 1011.3
20260905090032 25 338 0.0 0.0 0.00 0.00 0.00 91 1011.3
20260905085532 25 338 0.0 0.0 0.00 0.00 0.00 89 1011.1
20260905085032 25 338 0.0 0.0 0.00 0.00 0.00 90 1011.2
20260905084533 24 338 0.0 0.0 0.00 0.00 0.00 90 1011.1
20260905084031 24 338 0.0 0.0 0.00 0.00 0.00 90 1011.0
20260905083531 25 338 0.0 0.0 0.00 0.00 0.00 90 1010.9
20260905083031 25 338 0.0 0.0 0.00 0.00 0.00 90 1011.0
20260905082531 25 338 0.0 0.0 0.00 0.00 0.00 90 1011.0
20260905082031 25 338 0.0 0.0 0.00 0.00 0.00 90 1011.0
20260905081531 25 338 0.0 0.0 0.00 0.00 0.00 91 1011.0
20260905081033 25 338 0.0 0.0 0.00 0.00 0.00 91 1011.0
20260905080530 25 338 0.0 0.0 0.00 0.00 0.00 91 1010.9
20260905080033 25 338 0.0 0.0 0.00 0.00 0.00 91 1010.7
20260905075529 25 338 0.0 0.0 0.00 0.00 0.00 91 1010.8
20260905075029 25 338 0.0 0.0 0.00 0.00 0.00 92 1010.7
20260905074530 25 338 0.0 0.0 0.00 0.00 0.00 92 1010.6
20260905074029 25 338 0.0 0.0 0.00 0.00 0.00 93 1010.7
20260905073529 24 338 0.0 0.0 0.00 0.00 0.00 93 1010.7
20260905073035 24 338 0.0 0.0 0.00 0.00 0.00 93 1010.7
20260905072528 25 338 0.0 0.0 0.00 0.00 0.00 93 1010.8
20260905072027 24 338 0.0 0.0 0.00 0.00 0.00 93 1010.8
20260905071527 24 338 0.0 0.0 0.00 0.00 0.00 93 1010.9
20260905071025 25 338 0.0 0.0 0.00 0.00 0.00 93 1011.0
20260905070528 24 338 0.0 0.0 0.00 0.00 0.00 93 1011.1
20260905070043 25 338 0.0 0.0 0.00 0.00 0.00 93 1011.1
20260905065523 25 338 0.0 0.0 0.00 0.00 0.00 93 1011.1
20260905065023 25 338 0.0 0.0 0.00 0.00 0.00 93 1011.2
20260905064537 25 338 0.0 0.0 0.00 0.00 0.00 93 1011.4
20260905064022 25 338 0.0 0.0 0.00 0.00 0.00 93 1011.4
20260905063521 25 338 0.0 0.0 0.00 0.00 0.00 93 1011.4
20260905063021 25 338 0.0 0.0 0.00 0.00 0.00 92 1011.5
20260905062520 25 338 0.0 0.0 0.00 0.00 0.00 92 1011.5
20260905062020 25 338 0.0 0.0 0.00 0.00 0.00 92 1011.7
20260905061520 25 338 0.0 0.0 0.00 0.00 0.00 92 1011.6
20260905061018 25 338 0.0 0.0 0.00 0.00 0.00 92 1011.7
20260905060517 25 338 0.0 0.0 0.00 0.00 0.00 91 1011.8
20260905060021 25 338 0.0 0.0 0.00 0.00 0.00 91 1011.7
20260905055516 25 339 0.0 0.0 0.00 0.00 0.00 92 1011.7
20260905055022 25 69 0.0 0.0 0.00 0.00 0.00 92 1011.7
20260905054526 25 69 0.0 0.0 0.00 0.00 0.00 92 1011.8
20260905054018 25 69 0.0 0.0 0.00 0.00 0.00 92 1011.7
20260905053515 25 69 0.0 0.0 0.00 0.00 0.00 92 1011.8
20260905053017 25 69 0.0 0.0 0.00 0.00 0.00 92 1011.9
20260905052513 25 69 0.0 0.0 0.00 0.00 0.00 92 1012.0
20260905052013 25 69 0.0 0.0 0.00 0.00 0.00 92 1011.9
20260905051521 25 69 0.0 0.0 0.00 0.00 0.00 92 1012.0
20260905051011 25 69 0.0 0.0 0.00 0.00 0.00 92 1012.1
20260905050511 25 69 0.0 0.0 0.00 0.00 0.00 92 1012.1
20260905050010 25 69 0.0 0.0 0.00 0.00 0.00 92 1012.1
20260905045510 26 69 0.0 0.0 0.00 0.00 0.00 91 1012.2
20260905045010 26 69 0.0 0.0 0.00 0.00 0.00 91 1012.2
20260905044509 26 69 0.0 0.0 0.00 0.00 0.00 91 1012.3
20260905044008 26 69 0.0 0.0 0.00 0.00 0.00 91 1012.3
20260905043508 26 70 0.0 0.0 0.00 0.00 0.00 91 1012.2
20260905043009 26 69 0.0 0.0 0.00 0.00 0.00 90 1012.3
20260905042509 26 69 0.0 0.0 0.00 0.00 0.00 90 1012.4
20260905042008 26 69 0.0 0.0 0.00 0.00 0.00 91 1012.4
20260905041507 26 69 0.0 0.0 0.00 0.00 0.00 91 1012.3
20260905041005 26 69 0.0 0.0 0.00 0.00 0.00 89 1012.3
20260905040505 26 69 0.0 0.0 0.00 0.00 0.00 89 1012.2
20260905040011 26 69 0.0 0.0 0.00 0.00 0.00 89 1012.2
20260905035504 26 69 0.0 0.0 0.00 0.00 0.00 89 1012.2
20260905035004 26 69 0.0 0.0 0.00 0.00 0.00 89 1012.2
20260905034510 26 69 0.0 0.0 0.00 0.00 0.00 88 1012.2
20260905034007 26 69 0.0 0.0 0.00 0.00 0.00 88 1012.2
20260905033503 26 69 0.0 0.0 0.00 0.00 0.00 88 1012.2
20260905033005 26 69 0.0 0.0 0.00 0.00 0.00 88 1012.1
20260905032504 26 69 0.0 0.0 0.00 0.00 0.00 88 1012.2
20260905032003 26 69 0.0 0.0 0.00 0.00 0.00 87 1012.1
20260905031503 26 69 0.0 0.0 0.00 0.00 0.00 87 1012.2
20260905031002 26 69 0.0 0.0 0.00 0.00 0.00 86 1012.2
20260905030502 27 69 0.0 0.0 0.00 0.00 0.00 85 1012.2
20260905030003 27 69 0.0 0.0 0.00 0.00 0.00 83 1012.0
20260905025503 27 69 0.0 0.0 0.00 0.00 0.00 84 1012.0
20260905025003 27 69 0.0 0.0 0.00 0.00 0.00 84 1012.1
20260905024503 27 69 0.0 0.0 0.00 0.00 0.00 85 1012.2
20260905024002 27 69 0.0 0.0 0.00 0.00 0.00 86 1012.2
20260905023502 27 69 0.0 0.0 0.00 0.00 0.00 85 1012.2
20260905023004 27 69 0.0 0.0 0.00 0.00 0.00 86 1012.2
20260905022503 27 69 0.0 0.0 0.00 0.00 0.00 87 1012.2
20260905022001 27 69 0.0 0.0 0.00 0.00 0.00 89 1012.2
20260905021502 27 294 0.0 0.0 0.00 0.00 0.00 88 1012.2
20260905021002 27 294 0.0 0.0 0.00 0.00 0.00 88 1012.1
20260905020501 27 294 0.0 0.0 0.00 0.00 0.00 87 1012.1
20260905020106 27 294 0.0 0.0 0.00 0.00 0.00 87 1012.1
20260905015600 27 294 0.0 0.0 0.00 0.00 0.00 87 1012.0
20260905015101 27 294 0.0 0.0 0.00 0.00 0.00 87 1011.9
20260905014601 27 294 0.0 0.0 0.00 0.00 0.00 87 1012.0
20260905014100 27 294 0.0 0.0 0.00 0.00 0.00 86 1011.9
20260905013600 27 294 0.0 0.0 0.00 0.00 0.00 86 1011.8
20260905013100 28 294 0.0 0.0 0.00 0.00 0.00 86 1011.7
20260905012602 28 294 0.0 0.0 0.00 0.00 0.00 86 1011.7
20260905012103 28 294 0.0 0.0 0.00 0.00 0.00 85 1011.7
20260905011601 28 294 0.0 0.0 0.00 0.00 0.00 85 1011.7
20260905011059 28 294 0.0 0.0 0.00 0.00 0.00 85 1011.6
20260905010601 28 294 0.0 0.0 0.00 0.00 0.00 83 1011.5
20260905010059 28 294 0.0 0.0 0.00 0.00 0.00 82 1011.5
20260905005558 28 294 0.0 0.0 0.00 0.00 0.00 81 1011.5
20260905005058 28 294 0.0 0.0 0.00 0.00 0.00 81 1011.4
20260905004558 28 294 0.0 0.0 0.00 0.00 0.00 80 1011.4
20260905004058 28 294 0.0 0.0 0.00 0.00 0.00 80 1011.4
20260905003601 29 294 0.0 0.0 0.00 0.00 0.00 79 1011.3
20260905003059 29 294 0.0 0.0 0.00 0.00 0.00 77 1011.3
20260905002557 29 294 0.0 0.0 0.00 0.00 0.00 76 1011.3
20260905002057 30 294 0.0 0.0 0.00 0.00 0.00 76 1011.3
20260905001607 30 294 0.0 0.0 0.00 0.00 0.00 73 1011.3
20260905001056 30 294 0.0 0.0 0.00 0.00 0.00 73 1011.3
20260905000557 30 294 0.0 0.0 0.00 0.00 0.00 74 1011.3
20260904235557 30 294 0.0 0.0 0.00 0.00 0.00 70 1011.2
20260904235059 31 294 0.0 0.0 0.00 0.00 0.00 69 1011.2
20260904234606 31 294 0.0 0.0 0.00 0.00 0.00 68 1011.1
20260904234056 31 294 0.0 0.0 0.00 0.00 0.00 67 1011.2
20260904233556 32 294 0.0 0.0 0.00 0.00 0.00 66 1011.3
20260904233056 32 294 0.0 0.0 0.00 0.00 0.00 64 1011.3
20260904232556 32 294 0.0 0.0 0.00 0.00 0.00 63 1011.2
20260904232056 32 294 0.0 0.0 0.00 0.00 0.00 62 1011.1
20260904231555 33 294 0.0 0.0 0.00 0.00 0.00 62 1011.2
20260904231055 33 294 0.0 0.0 0.00 0.00 0.00 62 1011.1
20260904230554 33 294 0.0 0.0 0.00 0.00 0.00 60 1011.1
20260904230054 33 294 0.0 0.0 0.00 0.00 0.00 62 1011.3
20260904225554 33 294 0.0 0.0 0.00 0.00 0.00 57 1011.2
20260904225054 33 294 0.0 0.0 0.00 0.00 0.00 55 1011.3
20260904224553 33 294 0.0 0.0 0.00 0.00 0.00 55 1011.2
20260904224053 33 153 0.0 0.0 0.00 0.00 0.00 59 1011.3
20260904223553 33 196 0.0 0.0 0.00 0.00 0.00 54 1011.4
20260904223056 33 207 0.0 3.2 0.00 0.00 0.00 53 1011.3
20260904222552 33 260 0.0 3.2 0.00 0.00 0.00 54 1011.4
20260904222052 34 321 0.0 3.2 0.00 0.00 0.00 53 1011.4
20260904221555 34 201 0.0 1.6 0.00 0.00 0.00 54 1011.4
20260904221051 34 301 0.0 1.6 0.00 0.00 0.00 56 1011.4
20260904220551 34 327 0.0 1.6 0.00 0.00 0.00 54 1011.5
20260904220106 34 173 0.0 3.2 0.00 0.00 0.00 55 1011.4
20260904215551 34 300 0.0 3.2 0.00 0.00 0.00 54 1011.4
20260904215055 34 230 0.0 3.2 0.00 0.00 0.00 54 1011.3
20260904214550 34 300 0.0 3.2 0.00 0.00 0.00 57 1011.4
20260904214050 34 258 0.0 3.2 0.00 0.00 0.00 55 1011.4
20260904213551 33 336 0.0 3.2 0.00 0.00 0.00 55 1011.5
20260904213050 33 341 0.0 4.8 0.00 0.00 0.00 56 1011.5
20260904212552 33 347 0.0 4.8 0.00 0.00 0.00 55 1011.4
20260904212049 34 304 0.0 4.8 0.00 0.00 0.00 55 1011.5
20260904211554 34 323 0.0 1.6 0.00 0.00 0.00 56 1011.6
20260904211048 33 316 0.0 6.4 0.00 0.00 0.00 54 1011.6
20260904210547 34 294 0.0 6.4 0.00 0.00 0.00 55 1011.7
20260904210054 34 304 0.0 6.4 0.00 0.00 0.00 54 1011.9
20260904205546 34 309 1.6 6.4 0.00 0.00 0.00 54 1011.9
20260904205045 34 327 0.0 3.2 0.00 0.00 0.00 55 1012.0
20260904204544 34 294 0.0 3.2 0.00 0.00 0.00 57 1012.0
20260904204044 34 349 0.0 3.2 0.00 0.00 0.00 55 1012.1
20260904203544 34 300 0.0 4.8 0.00 0.00 0.00 56 1012.0
20260904203044 34 360 0.0 4.8 0.00 0.00 0.00 54 1012.2
20260904202543 34 327 0.0 4.8 0.00 0.00 0.00 56 1012.2
20260904202044 34 350 0.0 4.8 0.00 0.00 0.00 53 1012.3
20260904201545 34 334 0.0 4.8 0.00 0.00 0.00 54 1012.4
20260904201042 34 349 0.0 4.8 0.00 0.00 0.00 54 1012.3
20260904200542 34 328 0.0 4.8 0.00 0.00 0.00 55 1012.3
20260904200100 35 306 0.0 4.8 0.00 0.00 0.00 54 1012.4
20260904195541 35 303 0.0 3.2 0.00 0.00 0.00 53 1012.4
20260904195041 35 311 0.0 4.8 0.00 0.00 0.00 53 1012.4
20260904194622 35 305 0.0 4.8 0.00 0.00 0.00 52 1012.5
20260904194040 35 171 0.0 3.2 0.00 0.00 0.00 51 1012.5
20260904193540 35 316 0.0 4.8 0.00 0.00 0.00 49 1012.6
20260904193043 35 293 0.0 4.8 0.00 0.00 0.00 51 1012.6
20260904192537 35 287 0.0 4.8 0.00 0.00 0.00 53 1012.8
20260904192037 35 9 0.0 8.0 0.00 0.00 0.00 51 1012.9
20260904191537 35 312 0.0 8.0 0.00 0.00 0.00 53 1012.9